Flag for Austria Weather past 2 weeks in Fürstenfeld, Styria, Austria

Now
76 °F

Fog.


Feels Like: 78 °F
Forecast: 56 / 76 °F
Wind: 2 mph from Southwest

Location: Murska Sobota

Current Time: Jul 29, 2014 at 1:27:25 PM

Latest Report: Jul 29, 2014 at 12:00 PM


Visibility: 5 mi

Pressure: 29.78 "Hg

Humidity: 73%

Dew point: 67 °F

Location of FürstenfeldLocation

Historic Weather in Fürstenfeld — Graph

°F

Fürstenfeld temperature yesterday

Maximum temperature yesterday: 75 °F (at 3:00 PM)
Minimum temperature yesterday: 66 °F (at 3:00 AM)
Average temperature yesterday: 69 °F

Past Weeks' High & Low Weather Summary

 TemperatureHumidityPressure
High88 °F (Jul 20, 4:00 PM)100% (Jul 27, 5:00 AM)30.10 "Hg (Jul 27, 5:00 AM)
Low56 °F (Jul 24, 6:00 AM)37% (Jul 17, 2:00 PM)29.73 "Hg (Jul 21, 9:00 AM)
Average72 °F77%29.92 "Hg
* Reported Jul 14 12:00 Noon — Jul 29 12:00 Noon, Fürstenfeld, Weather by CustomWeather, © 2014

Note: Actual official high and low records may vary slightly from our data, if they occured in-between our weather recording intervals... More about our weather records

Advertising

Fürstenfeld weather history for previous 24 hours

 ConditionsComfort  
Time TempWeatherWind HumidityBarometerVisibility
12:00 PM
Jul 29
76 °FFog.2 mph73%29.78 "Hg5 mi
11:00 AM73 °FFog.1 mph82%29.79 "Hg2 mi
10:00 AM70 °FFog.1 mph90%29.80 "Hg1 mi
9:00 AM68 °FFog.1 mph96%29.79 "Hg1 mi
8:00 AM66 °FFog.1 mph100%29.79 "Hg1 mi
7:00 AM65 °FFog.2 mph100%29.79 "Hg0 mi
6:00 AM65 °FFog.1 mph100%29.79 "Hg0 mi
5:00 AM65 °FFog.1 mph100%29.79 "Hg0 mi
4:00 AM65 °FMild.1 mph99%29.79 "HgN/A
3:00 AM66 °FMild.No wind100%29.80 "HgN/A
2:00 AM66 °FMild.No wind100%29.81 "HgN/A
1:00 AM66 °FMild.1 mph99%29.81 "HgN/A
12:00 AM67 °FMild.1 mph98%29.82 "HgN/A
10:00 PM
Jul 28
68 °FMild.1 mph97%29.83 "HgN/A
9:00 PM69 °FMild.N/AN/AN/AN/A
8:00 PM69 °FLight rain. Overcast.1 mph96%29.82 "Hg4 mi
7:00 PM69 °FMild.1 mph95%29.83 "HgN/A
6:00 PM72 °FMild.3 mph87%29.83 "HgN/A
5:00 PM75 °FMild.2 mph74%29.82 "HgN/A
4:00 PM75 °FMild.1 mph71%29.83 "HgN/A
3:00 PM75 °FOvercast.1 mph74%29.83 "Hg6 mi
2:00 PM74 °FFog.2 mph79%29.85 "Hg5 mi
1:00 PM73 °FFog.2 mph78%29.86 "Hg5 mi
Weather by CustomWeather, © 2014

See weather overviewHow to use our weather pages